This is the latest recevied weather packets stored in our database for station/object N8AMF. If no packets are shown the sender has not sent any weather packets the latest 10 day(s).
| Time | Temp. | Humidity | Pressure | Rain* | Wind** | Luminosity | Snow |
|---|---|---|---|---|---|---|---|
| 1777292726 | 9.44° C | 86% | 1019.3 hPa | 0 mm | - | 110 W/m² | - |
| 1777292422 | 9.44° C | 86% | 1019.2 hPa | 0 mm | - | 97 W/m² | - |
| 1777292120 | 9.44° C | 86% | 1019.2 hPa | 0 mm | - | 89 W/m² | - |
| 1777291815 | 9.44° C | 86% | 1019.3 hPa | 0 mm | - | 80 W/m² | - |
| 1777291512 | 9.44° C | 86% | 1019.2 hPa | 0 mm | - | 82 W/m² | - |
| 1777291209 | 9.44° C | 86% | 1019.1 hPa | 0 mm | - | 80 W/m² | - |
| 1777290905 | 9.44° C | 86% | 1019.2 hPa | 0 mm | - | 76 W/m² | - |
| 1777290603 | 9.44° C | 87% | 1019.3 hPa | 0 mm | - | 75 W/m² | - |
| 1777290299 | 8.89° C | 87% | 1019.4 hPa | 0 mm | - | 75 W/m² | - |
| 1777289995 | 8.89° C | 87% | 1019.5 hPa | 0.51 mm | - | 73 W/m² | - |
| 1777289691 | 8.89° C | 87% | 1019.4 hPa | 0.51 mm | - | 68 W/m² | - |
| 1777289387 | 8.89° C | 88% | 1019.3 hPa | 0 mm | - | 64 W/m² | - |
| 1777289083 | 8.89° C | 89% | 1019.5 hPa | 0 mm | - | 59 W/m² | - |
| 1777288780 | 8.89° C | 90% | 1019.4 hPa | 0 mm | - | 53 W/m² | - |
| 1777288477 | 8.33° C | 92% | 1019.3 hPa | 0 mm | - | 48 W/m² | - |
| 1777288173 | 8.33° C | 93% | 1019.4 hPa | 0 mm | - | 44 W/m² | - |
| 1777287870 | 7.78° C | 94% | 1019.5 hPa | 0 mm | - | 36 W/m² | - |
| 1777287567 | 7.78° C | 95% | 1019.5 hPa | 0 mm | - | 30 W/m² | - |
| 1777287262 | 7.78° C | 95% | 1019.7 hPa | 0 mm | - | 24 W/m² | - |
| 1777286959 | 7.22° C | 95% | 1019.6 hPa | 0 mm | - | 17 W/m² | - |
| 1777286657 | 7.22° C | 95% | 1019.5 hPa | 0 mm | - | 12 W/m² | - |
| 1777286354 | 7.22° C | 95% | 1019.7 hPa | 0 mm | - | 8 W/m² | - |
| 1777286051 | 7.22° C | 96% | 1019.5 hPa | 0 mm | - | 5 W/m² | - |
| 1777285748 | 7.22° C | 95% | 1019.4 hPa | 0 mm | - | 3 W/m² | - |
| 1777285445 | 7.22° C | 95% | 1019.4 hPa | 0 mm | - | 1 W/m² | - |
* Rain latest hour (hover to see other rain measurements)
** Current wind speed in m/s (hover to see current wind gust speed)